Regional Weather Roundup
Issued by NWS Newport/Morehead, NC

Current Version | Previous Version | Graphics & Text | Print | Product List | Glossary On
Versions: 1 2 3 4 5 6 7 8 9 10 11 12 13 14 15 16 17 18 19 20 21 22 23 24 25 26 27 28 29 30 31 32 33 34 35 36 37 38 39 40 41 42 43 44 45 46 47 48 49 50
000 ASUS42 KMHX 220024 RWRMHX WEATHER ROUNDUP FOR EASTERN NORTH CAROLINA NATIONAL WEATHER SERVICE NEWPORT/MOREHEAD CITY NC 800 PM EDT THU MAY 21 2015 NOTE: "FAIR" INDICATES FEW OR NO CLOUDS BELOW 12,000 FEET WITH NO SIGNIFICANT WEATHER AND/OR OBSTRUCTIONS TO VISIBILITY NCZ015>017-031-032-045>047-102-103-220100- NORTH COAST CITY SKY/WX TMP DP RH WIND PRES REMARKS EDENTON CLOUDY 62 60 91 N13G22 29.84R ELIZABETH CITY CLOUDY 62 59 90 N17G30 29.82R KITTY HAWK CLOUDY 69 69 99 W8 29.76R MANTEO CLOUDY 68 67 96 NW12G17 29.78R $$ NCZ045>047-081-094-103-104-220100- CENTRAL COAST CITY SKY/WX TMP DP RH WIND PRES REMARKS FRISCO HVY RAIN 71 69 93 W14G29 29.78R SWANQUARTER N/A 64 N/A N/A NW13G21 29.79R $$ NCZ095-097-098-100-101-220100- SOUTHERN COAST CITY SKY/WX TMP DP RH WIND PRES REMARKS BEAUFORT CLOUDY 70 67 90 NW25G33 29.82R CEDAR ISLAND N/A 72 N/A N/A NW15G30 29.85R JACKSONVILLE MOCLDY 68 63 84 N16G23 29.85R PINEY ISLAND CLOUDY N/A N/A N/A NW20G25 29.82R WILMINGTON MOCLDY 71 68 90 N10 29.85R $$ NCZ011>013-027>030-043-044-078>080-089-090>093-098-220100- COASTAL PLAIN CITY SKY/WX TMP DP RH WIND PRES REMARKS AHOSKIE CLOUDY 59 56 90 N8 29.88R CLINTON CLEAR 68 63 84 N6 29.87R ELIZABETHTOWN CLEAR 70 64 81 CALM 29.86R GOLDSBORO PTCLDY 65 59 80 N7 29.86R GREENVILLE CLOUDY 63 59 88 N8 29.90R HAVELOCK CLOUDY 67 62 84 NW21G30 29.85R KENANSVILLE PTCLDY 65 61 86 N10G16 29.88R KINSTON MOCLDY 64 61 88 N12 29.89R NEW BERN CLOUDY 65 61 87 NW13G21 29.86R RICHLANDS PTCLDY 64 59 82 NW6 29.87R ROCKY MOUNT PTCLDY 62 57 83 N9 29.88R WASHINGTON CLOUDY N/A N/A N/A NW9G16 29.87R WHITEVILLE CLEAR 74 64 70 N5 29.84R $$ AMZ130-135-150-152-154-156-158-170-250-252-270-ANZ085-086-088-633-658-670-220100- MARINE OBSERVATIONS STATION/POSITION TIME TEMP WIND PRES WAVE SWELL AIR SEA DIR/SP/G HT/PER HT/PER (UTC) (F) (DEG/KT/KT) (MB) (FT/S) (FT/S) CHESAPEAKE LIGHT 0000 59 10/ 30/ 33 1009.0 64 E VA BEACH 2350 67 62 170/ 16/ 17 1006.6 3/ 5 2/ 8 DUCK 0000 66 65 310/ 18/ 20 1007.5 2 E DUCK 2311 68 N/A 3/ 5 OREGON INLET 0000 70 71 280/ 9/ 12 1007.6 13E OREGON INLT 0000 66 N/A 4/ 5 HATTERAS CG 0000 71 73 250/ 17/ 29 1007.6 DIAMOND BUOY 2350 78 77 190/ 14/ 17 1007.2 4/ 9 2/ 9 CAPE LOOKOUT 0000 73 310/ 17/ 20 1008.9 BEAUFORT LAB 0000 71 76 330/ 15/ 21 1008.9 27 SE WRIGHTSVLE 0000 73 78 330/ 12/ 16 N/A 5 SE WRIGHTSVLE 2308 76 77 310/ 8/ 16 1009.1 225 S CAPE HAT 2350 76 75 220/ 14/ 17 1012.7 4/ 6 2/ 9 41 SE CHARLESTON 2350 78 76 220/ 14/ 17 1009.6 4/ 5 2/ 8 $$

USA.gov is the U.S. government's official web portal to all federal, state and local government web resources and services.